Weather History for Klamath Falls, OR

Change the Weather History Date:

Thursday, October 23, 2014

  Actual Average Record
Temperature  
Mean Temperature 47 °F 44 °F  
Max Temperature 51 °F 59 °F 76 °F (1999)
Min Temperature 43 °F 30 °F 19 °F (2001)
Degree Days  
Heating Degree Days 18 21  
Month to date heating degree days 296 380  
Since 1 July heating degree days 472 736  
Cooling Degree Days 0 0  
Month to date cooling degree days 0 0  
Year to date cooling degree days 327 169  
Moisture  
Dew Point 43 °F    
Average Humidity 83    
Maximum Humidity 96    
Minimum Humidity 80    
Precipitation  
Precipitation 0.66 in 0.05 in 0.73 in (1970)
Month to date precipitation 1.34 0.54  
Year to date precipitation 9.80 10.81  
Sea Level Pressure  
Sea Level Pressure 29.99 in    
Wind  
Wind Speed 12 mph (South)    
Max Wind Speed 24 mph    
Max Gust Speed 29 mph    
Visibility 9 miles    
Events Rain    
T = Trace of Precipitation, MM = Missing Value Source: NWS Daily Summary

Daily Weather History Graph

Daily Weather History Graph

Search for Another Location

Airport:

Trip Planner

Search our weather history database for the weather conditions in past years. The results will help you decide how hot, cold, wet, or windy it might be!

Date:

Astronomy

Oct. 23, 2014 Rise Set
Actual Time 7:29 AM PDT 6:12 PM PDT
Civil Twilight 7:00 AM PDT 6:41 PM PDT
Nautical Twilight 6:27 AM PDT 7:13 PM PDT
Astronomical Twilight 5:55 AM PDT 7:46 PM PDT
Moon 7:13 AM PDT (10/23) 6:17 PM PDT (10/23)
Length of Visible Light 11h 40m
Length of Day
10h 43m
Waning Crescent, 0% of the Moon is Illuminated
Oct 23
Waning Crescent
Oct 23
New
Oct 30
First Quarter
Nov 6
Full
Nov 14
Last Quarter

Hourly Weather History & Observations

Time (PDT) Temp. Windchill Dew Point Humidity Pressure Visibility Wind Dir Wind Speed Gust Speed Precip Events Conditions
12:53 AM 48.0 °F - 43.0 °F 83% 29.95 in 10.0 mi South 15.0 mph - 0.00 in   Overcast
1:53 AM 48.0 °F - 43.0 °F 83% 29.94 in 10.0 mi South 11.5 mph - 0.00 in Rain Light Rain
2:53 AM 48.0 °F - 43.0 °F 83% 29.94 in 10.0 mi South 16.1 mph - 0.01 in   Overcast
3:53 AM 48.9 °F - 43.0 °F 80% 29.91 in 10.0 mi SSE 16.1 mph - 0.00 in   Mostly Cloudy
4:53 AM 48.9 °F - 42.1 °F 77% 29.91 in 10.0 mi South 12.7 mph 23.0 mph 0.00 in   Scattered Clouds
5:53 AM 48.0 °F - 42.1 °F 80% 29.91 in 10.0 mi SSE 13.8 mph - 0.00 in   Overcast
6:53 AM 48.0 °F - 43.0 °F 83% 29.93 in 10.0 mi SSE 11.5 mph - 0.03 in   Overcast
7:53 AM 48.0 °F - 43.0 °F 83% 29.93 in 10.0 mi SSE 12.7 mph - N/A   Overcast
8:53 AM 48.0 °F - 43.0 °F 83% 29.95 in 10.0 mi South 16.1 mph 24.2 mph 0.01 in Rain Light Rain
9:53 AM 48.9 °F - 45.0 °F 86% 29.96 in 10.0 mi South 15.0 mph - 0.06 in Rain Light Rain
10:53 AM 48.9 °F - 45.0 °F 86% 29.96 in 10.0 mi SSE 16.1 mph - 0.04 in Rain Light Rain
11:53 AM 50.0 °F - 44.1 °F 80% 29.99 in 10.0 mi South 19.6 mph - 0.01 in Rain Light Rain
12:53 PM 50.0 °F - 45.0 °F 83% 30.00 in 6.0 mi South 13.8 mph - 0.02 in Rain Light Rain
1:53 PM 50.0 °F - 45.0 °F 83% 29.99 in 6.0 mi SSW 13.8 mph - 0.05 in Rain Light Rain
2:53 PM 50.0 °F - 45.0 °F 83% 29.99 in 6.0 mi South 11.5 mph - 0.00 in   Haze
3:27 PM 48.9 °F - 45.0 °F 86% 30.04 in 5.0 mi SSW 8.1 mph - 0.05 in Rain Rain
3:35 PM 48.9 °F - 44.1 °F 83% 30.04 in 10.0 mi South 13.8 mph - 0.05 in Rain Light Rain
3:53 PM 48.9 °F - 44.1 °F 83% 30.01 in 10.0 mi SSW 11.5 mph - 0.05 in Rain Light Rain
4:53 PM 48.0 °F - 43.0 °F 83% 30.04 in 4.0 mi SW 10.4 mph - 0.05 in Rain Rain
5:53 PM 45.0 °F 40.6 °F 41.0 °F 86% 30.05 in 6.0 mi SW 8.1 mph - 0.19 in Rain Rain
6:53 PM 45.0 °F 39.7 °F 39.9 °F 82% 30.04 in 10.0 mi SSE 10.4 mph - 0.01 in   Overcast
7:53 PM 45.0 °F 38.9 °F 39.9 °F 82% 30.06 in 10.0 mi South 12.7 mph - N/A   Overcast
8:53 PM 44.1 °F 37.4 °F 39.9 °F 85% 30.06 in 10.0 mi SSE 13.8 mph - 0.00 in Rain Light Rain
9:53 PM 44.1 °F 39.0 °F 39.0 °F 82% 30.06 in 10.0 mi SSE 9.2 mph - 0.02 in Rain Light Rain
10:53 PM 44.1 °F 40.8 °F 39.9 °F 85% 30.07 in 10.0 mi SE 5.8 mph - 0.03 in Rain Light Rain
11:53 PM 43.0 °F 41.3 °F 41.0 °F 93% 30.06 in 10.0 mi SSE 3.5 mph - 0.04 in Rain Light Rain